Location: Harold
(38.2725°N, 99.9335°W)
Time: 04:28:43
(UTC+00:00)

Daily predictions for brighter satellites

Satellite Brightness Start Highest point End
(mag) Time Altitude Azimuth Time Altitude Azimuth Time Altitude Azimuth
Cosmos 1689 Rocket 4.1 00:01:43 11° ENE 00:02:29 12° E 00:03:34 10° ESE
CZ-2C R/B 4.5 00:00:32 10° E 00:03:20 15° ENE 00:06:04 10° NNE
Cosmos 1867 4.2 00:00:06 10° S 00:05:04 38° ESE 00:10:05 10° NE
Cosmos 1633 Rocket 4.5 00:03:38 10° NNE 00:06:29 17° ENE 00:09:17 10° ESE
Cosmos 2333 Rocket 4.0 00:01:57 10° WSW 00:06:53 29° WNW 00:11:48 10° N
Cosmos 2341 Rocket 4.5 00:01:24 10° N 00:07:11 38° ENE 00:12:59 10° SE
ISS -2.7 00:04:34 10° WSW 00:07:44 39° NNW 00:10:56 10° NE
Cosmos 372 Rocket 4.4 00:03:44 10° NNW 00:08:51 67° WSW 00:13:58 10° S
NOSS 0 Rocket 4.3 00:05:26 10° SSW 00:11:39 72° WNW 00:17:53 10° NNE
COSMOS 2428 4.2 00:06:56 10° SW 00:12:08 35° WNW 00:17:21 10° N
USA 281 4.0 00:07:21 10° ESE 00:12:43 28° NE 00:18:06 10° N
Cosmos 1939 Rocket 3.6 00:11:25 10° SE 00:14:42 28° ENE 00:18:02 10° NNE
Cosmos 2298 Rocket 4.0 00:09:28 10° NNW 00:14:48 82° ENE 00:20:07 10° SSE
ERS-2 2.3 00:11:14 10° NNE 00:14:49 52° E 00:18:24 10° S
Cosmos 1818 3.7 00:10:51 10° NNW 00:16:12 51° NE 00:21:29 10° SE
Cosmos 2150 Rocket 3.9 00:11:20 10° NNW 00:16:30 78° ENE 00:21:38 10° SSE
CZ-4B R/B 1.1 00:14:05 10° NNE 00:17:08 63° ESE 00:20:12 10° S
FALCON 9 R/B 2.0 00:15:35 10° SW 00:17:24 22° SSE 00:19:03 13° ESE
Cosmos 2221 4.3 00:13:31 10° SW 00:17:28 34° WNW 00:21:26 10° NNW
TELKOM 3 4.4 00:20:56 10° W 00:23:32 33° NNW 00:25:00 17° NNE
Cosmos 2278 Rocket 2.2 00:18:57 10° NNW 00:24:39 85° ENE 00:30:20 10° SSE
Cosmos 1500 Rocket 4.4 00:20:24 10° NNW 00:24:41 53° W 00:28:59 10° S
YAOGAN 1 4.0 00:32:32 19° NE 00:32:32 19° NE 00:34:42 10° NNE
Cosmos 1125 Rocket 3.4 00:28:11 10° NNW 00:33:25 77° ENE 00:38:36 10° SSE
IRS-1C Rocket 4.3 00:28:27 10° SE 00:33:27 45° ENE 00:38:28 10° N
SL-8 Rocket 4.2 00:28:07 10° N 00:34:06 46° E 00:40:05 10° SSE
Cosmos 2181 Rocket 4.2 00:27:54 10° SSE 00:34:07 54° E 00:40:20 10° NNE
Okean-O 3.4 00:34:58 10° SE 00:38:46 29° ENE 00:42:36 10° N
CZ-4B R/B 4.2 00:37:08 10° S 00:42:19 48° W 00:47:27 10° NNW
COSMO-SKYMED 1 2.4 00:41:18 10° NNE 00:45:40 80° ESE 00:49:59 10° S
USA 215 3.8 00:41:40 12° NE 00:47:33 52° NW 00:53:50 10° WSW
SL-24 R/B - RUBIN 2 4.2 00:42:39 10° NNW 00:48:52 88° ENE 00:54:17 10° SSE
Cosmos 2237 Rocket 3.2 00:43:36 10° SW 00:48:57 44° WNW 00:54:20 10° N
Meteor 2-12 Rocket 4.4 00:42:58 10° N 00:49:09 88° W 00:55:16 10° S
NOAA 11 4.5 00:44:29 10° S 00:49:52 69° WSW 00:55:18 10° NNW
Cosmos 1933 3.2 00:47:04 10° S 00:51:04 79° E 00:55:00 11° N
Okean O Rocket 3.3 00:47:19 10° SSW 00:51:18 36° W 00:55:20 10° NNW
X-37B 3.2 00:55:28 10° SSE 00:55:46 11° SSE 00:55:46 11° SSE
SL-24 R/B 3.7 00:52:58 11° NNE 00:56:59 86° ESE 01:00:42 10° SSW
Sich 1 3.5 00:53:27 10° NNW 00:57:48 64° W 01:02:05 10° S
PSLV R/B 3.7 00:56:29 19° NNE 00:59:21 80° ESE 01:03:22 10° S
USA 81 3.9 00:56:09 10° N 01:01:27 75° E 01:06:43 10° S
EO 1 Delta rocket 4.4 00:57:08 10° NNE 01:02:34 78° E 01:09:26 10° S
Helios 1A Rocket 2.9 01:00:50 10° SSE 01:04:48 54° ENE 01:08:41 10° N
H-2A R/B 2.6 01:06:07 37° ENE 01:06:07 37° ENE 01:10:26 10° N
Cosmos 2369 Rocket 4.1 01:02:41 10° N 01:03:55 14° NNE 01:03:55 14° NNE
Cosmos 389 Rocket 4.4 01:03:44 10° SW 01:06:46 29° WNW 01:09:48 10° NNW
Cosmos 1151 Rocket 3.1 01:06:49 10° S 01:11:07 77° W 01:14:22 17° N
Cosmos 1782 3.1 01:07:46 10° S 01:10:52 49° SE 01:10:52 49° SE
Cosmos 1666 Rocket 3.8 01:08:46 10° NNW 01:13:09 70° W 01:17:32 10° S
Cosmos 1328 Rocket 3.5 01:10:36 10° S 01:14:53 80° W 01:17:25 24° N
Cosmos 773 Rocket 3.9 01:10:03 10° S 01:15:15 77° ESE 01:17:26 36° NNE
USA 267 3.3 01:15:21 37° E 01:17:49 59° NE 01:24:12 10° NW
Cosmos 2218 Rocket 3.9 01:12:16 10° N 01:18:27 88° E 01:24:36 10° S
SL-24 DEB 4.4 01:20:11 10° N 01:24:57 76° W 01:29:39 10° SSW
ATLAS CENTAUR R/B 4.1 01:06:36 10° NW 01:26:33 61° NNE 01:29:51 41° E
Meteor 1-14 Rocket 4.3 01:22:18 10° N 01:28:11 60° E 01:34:04 10° SSE
Cosmos 2366 rocket 4.0 01:24:17 10° N 01:30:29 78° W 01:36:36 10° S
Cosmos 2297 3.5 01:25:20 10° NNW 01:31:02 78° ENE 01:32:42 48° SE
Lacrosse 5 rocket 2.0 01:28:44 10° SW 01:31:33 44° W 01:31:33 44° W
MOS 1 Rocket 3.7 01:30:44 20° N 01:34:40 77° WNW 01:40:04 10° SSW
CZ-4 R/B 3.3 01:38:03 21° NNW 01:38:03 21° NNW 01:39:30 10° NNW
SL-16 R/B 2.9 01:30:44 10° SW 01:36:14 52° WNW 01:39:33 23° N
Cosmos 1943 Rocket 3.2 01:32:47 10° NNW 01:35:49 31° N 01:35:49 31° N
SL-23 DEB 4.3 01:34:35 10° WSW 01:38:22 74° NW 01:38:22 74° NW
CZ-2C R/B 3.4 01:37:31 10° S 01:42:44 63° W 01:47:41 10° NNW
Cosmos 489 Rocket 4.5 01:44:52 10° SSW 01:51:03 77° WNW 01:52:35 53° N
USA 281 3.8 01:50:24 10° S 01:56:48 56° WSW 02:03:15 10° NNW
Nadezhda 3 Rocket 4.3 02:06:16 10° SSW 02:11:33 61° SW 02:11:33 61° SW
H-2A R/B 4.3 02:46:45 21° WNW 02:46:45 21° WNW 02:49:22 10° NW
SL-16 R/B 3.3 10:33:48 41° ESE 10:33:48 41° ESE 10:37:38 10° SE
ALOS 4.0 10:35:54 10° NNE 10:43:44 13° SSE 10:44:22 10° SSE
ADEOS Rocket 4.4 10:48:26 10° S 10:50:36 24° S 10:50:36 24° S
SL-4 R/B 4.2 11:08:06 18° NE 11:08:06 18° NE 11:09:15 10° NE
Cosmos 2263 Rocket 2.9 11:01:29 10° S 11:06:55 52° ESE 11:12:25 10° NNE
Cosmos 1606 4.4 11:08:23 30° ENE 11:09:02 32° ENE 11:12:27 10° SE
NOSS 3-4 (A) 4.3 11:06:07 10° S 11:11:39 45° ESE 11:17:25 10° NE
NOSS 3-4 (C) 4.3 11:06:15 10° S 11:11:46 45° ESE 11:17:32 10° NE
SL-08 ROCKET BODY 4.3 11:07:12 10° SSW 11:13:13 71° W 11:19:22 10° N
Cosmos 2151 3.5 11:10:09 10° S 11:14:15 56° E 11:18:22 10° NNE
ARGOS Delta rocket 3.9 11:09:52 10° NNE 11:15:05 83° E 11:19:59 10° S
Cosmos 1745 Rocket 3.8 11:09:58 10° S 11:16:13 81° W 11:22:35 10° N
Lacrosse 4 Rocket 4.3 11:15:27 10° NNE 11:16:57 11° NE 11:18:27 10° ENE
Meteor 1-31 Rocket 3.4 11:14:07 10° NNE 11:17:53 52° E 11:21:37 10° S
USA 276 4.2 11:23:35 26° SE 11:23:35 26° SE 11:25:08 10° SE
SL-8 R/B 3.8 11:24:28 63° SSW 11:24:28 63° SSW 11:28:57 10° SE
Cosmos 1441 Rocket 3.6 11:25:20 10° S 11:29:06 62° E 11:32:50 10° NNE
ATLAS 2AS CENTAUR R/B 3.7 11:23:25 10° SSW 11:31:05 57° ESE 11:38:47 10° NE
CENTAUR R/B 3.7 11:26:29 16° NNW 11:33:21 60° NE 11:42:07 10° SE
USA 234 3.6 11:27:06 10° NE 11:33:36 63° SE 11:40:03 10° SSW
SJ 16-02 2.8 11:30:22 10° S 11:34:26 38° E 11:38:33 10° NNE
FENGYUN 3A 3.6 11:31:42 10° N 11:37:03 62° WNW 11:42:21 10° SSW
CZ-4B R/B 4.0 11:32:42 10° NNE 11:37:06 51° E 11:41:24 10° S
Cosmos 1943 4.2 11:32:33 10° N 11:38:01 45° ENE 11:43:26 10° SE
OAO 3 Rocket 3.5 11:37:47 46° SW 11:38:32 51° S 11:43:06 10° ESE
Atlas Centaur 2 4.1 11:34:24 10° SSW 11:38:33 19° SSE 11:42:06 10° ESE
COSMO-SKYMED 1 3.4 11:34:29 10° SSE 11:38:40 50° ENE 11:42:53 10° N
Cosmos 1709 Rocket 4.0 11:35:44 10° S 11:42:04 90° ESE 11:48:30 10° N
Cosmos 773 Rocket 3.9 11:41:20 30° NNW 11:44:01 74° WSW 11:49:15 10° S
NOSS 3-2 (A) 4.1 11:39:20 22° NW 11:44:55 83° WSW 11:53:35 10° SSE
Cosmos 2227 4.1 11:45:33 10° SSW 11:51:08 65° WNW 11:56:44 10° NNE
Cosmos 1689 Rocket 3.2 11:49:05 10° SSE 11:51:48 40° ENE 11:53:34 18° NNE
